OKEAN-O (25860 NORAD) Tracking and Keplerian Element Data

This shows tracking and keplerian element data for the satellite.

Feedback or suggestion? Click here.




ElementValue
Catalog25860
NameOKEAN-O
Epoch Orbit2277
Epoch Day202.63206638
Epoch Year2018
RAAN198.8324
Inclination98.2168
Eccentricity9.34E-05
Argument of Perigee73.3623
Mean Anonmoly286.7689
Mean Motion14.76556327
Decay Rate9E-08
L11 25860U 99039A 18202.63206638 .00000009 00000-0 89658-5 0 9998
L22 25860 98.2168 198.8324 0000934 73.3623 286.7689 14.76556327 22772

Live tracking and technical data element details for OKEAN-O (NORAD 25860). OKEAN-O can be tracked NOW for your location showing map with azimuth and elevation plus other details from your city location.

Track the satellite on the map from your city or location and see movement details for azimuth, elevation, latitude, longitude, range, height, and movement on the map or in text.







IsCatalogInMostPopularTable: catalog: 25860, numindb: 22
Update: records affected: 1



GetName: 25860 OKEAN-O

Hit Count: updated at: Mon, 23 Jul 2018 07:55:44 GMT